Birmingham, AL

6:33 AM CST on February 27, 2017 (GMT -0600)
Birmingham International

Weather History for KBHM - November, 2014

Change the Weather History Date:

Saturday, November 22, 2014

  Actual Average Record
Temperature  
Mean Temperature 55 °F 52 °F  
Max Temperature 68 °F 63 °F 79 °F (1900)
Min Temperature 42 °F 42 °F 20 °F (1964)
Degree Days  
Heating Degree Days 10 13  
Month to date heating degree days 362 217  
Since 1 July heating degree days 449 344  
Growing Degree Days 4 (Base 50)    
Moisture  
Dew Point 41 °F    
Average Humidity 58    
Maximum Humidity 72    
Minimum Humidity 44    
Precipitation  
Precipitation T in 0.18 in 2.07 in (2004)
Month to date precipitation 3.54 3.42  
Year to date precipitation 41.70 47.84  
Snow  
Snow 0.00 in 0.00 in - ()
Month to date snowfall 0.0 0.0  
Since 1 July snowfall 0.0 0.0  
Since 1 September snowfall 0.0 0.0  
Snow Depth 0.00 in    
Sea Level Pressure  
Sea Level Pressure 30.27 in    
Wind  
Wind Speed 8 mph (ESE)    
Max Wind Speed 18 mph    
Max Gust Speed 28 mph    
Visibility 10 miles    
Events Rain    
T = Trace of Precipitation, MM = Missing Value Source: NWS Daily Summary

Daily Weather History Graph

Daily Weather History Graph

Search for Another Location

Airport or City:

Trip Planner

Search our weather history database for the weather conditions in past years. The results will help you decide how hot, cold, wet, or windy it might be!

Date:

Astronomy

Nov. 22, 2014 Rise Set
Actual Time 6:25 AM CST 4:40 PM CST
Civil Twilight 5:58 AM CST 5:07 PM CST
Nautical Twilight 5:28 AM CST 5:38 PM CST
Astronomical Twilight 4:58 AM CST 6:07 PM CST
Moon 6:22 AM CST (11/22) 5:09 PM CST (11/22)
Length of Visible Light 11h 09m
Length of Day
10h 15m
New Moon, 0% of the Moon is Illuminated
Nov 22
New Moon
Nov 29
First Quarter
Dec 6
Full
Dec 14
Last Quarter
Dec 21
New

Hourly Weather History & Observations

Time (CST) Temp. Windchill Dew Point Humidity Pressure Visibility Wind Dir Wind Speed Gust Speed Precip Events Conditions
12:53 AM 46.9 °F - 35.1 °F 63% 30.38 in 10.0 mi NNE 6.9 mph - N/A   Partly Cloudy
1:53 AM 46.0 °F 43.1 °F 34.0 °F 63% 30.38 in 10.0 mi NE 5.8 mph - N/A   Partly Cloudy
2:53 AM 45.0 °F 41.2 °F 33.1 °F 63% 30.38 in 10.0 mi NNE 6.9 mph - N/A   Partly Cloudy
3:53 AM 44.1 °F 40.1 °F 32.0 °F 63% 30.38 in 10.0 mi NNE 6.9 mph - N/A   Clear
4:53 AM 44.1 °F 40.1 °F 30.9 °F 60% 30.39 in 10.0 mi NE 6.9 mph - N/A   Clear
5:53 AM 43.0 °F 39.5 °F 30.9 °F 62% 30.40 in 10.0 mi NE 5.8 mph - N/A   Clear
6:53 AM 44.1 °F - 30.9 °F 60% 30.40 in 10.0 mi Calm Calm - N/A   Clear
7:53 AM 48.9 °F - 33.1 °F 54% 30.39 in 10.0 mi East 9.2 mph - N/A   Clear
8:53 AM 52.0 °F - 35.1 °F 53% 30.39 in 10.0 mi East 9.2 mph 16.1 mph N/A   Clear
9:53 AM 57.9 °F - 37.0 °F 46% 30.38 in 10.0 mi ESE 11.5 mph - N/A   Clear
10:53 AM 61.0 °F - 39.0 °F 44% 30.34 in 10.0 mi ESE 10.4 mph - N/A   Scattered Clouds
11:53 AM 64.0 °F - 43.0 °F 46% 30.28 in 10.0 mi SSE 12.7 mph - N/A   Mostly Cloudy
12:53 PM 66.0 °F - 45.0 °F 47% 30.24 in 10.0 mi SE 11.5 mph - N/A   Mostly Cloudy
1:53 PM 66.9 °F - 46.9 °F 49% 30.21 in 10.0 mi SSE 11.5 mph - N/A   Mostly Cloudy
2:53 PM 66.9 °F - 48.0 °F 51% 30.20 in 10.0 mi SE 8.1 mph 16.1 mph N/A   Mostly Cloudy
3:53 PM 64.9 °F - 48.0 °F 54% 30.18 in 10.0 mi Variable 4.6 mph - N/A   Overcast
4:53 PM 63.0 °F - 46.9 °F 56% 30.17 in 10.0 mi ESE 5.8 mph - N/A   Overcast
5:53 PM 63.0 °F - 46.9 °F 56% 30.17 in 10.0 mi ESE 5.8 mph - N/A   Overcast
6:53 PM 63.0 °F - 46.9 °F 56% 30.16 in 10.0 mi ESE 8.1 mph - N/A   Overcast
7:53 PM 61.0 °F - 48.0 °F 62% 30.15 in 10.0 mi SE 8.1 mph - N/A   Overcast
8:53 PM 60.1 °F - 48.0 °F 64% 30.14 in 10.0 mi SE 8.1 mph 19.6 mph N/A   Overcast
9:53 PM 57.9 °F - 48.9 °F 72% 30.12 in 10.0 mi ESE 12.7 mph 20.7 mph N/A   Overcast
10:53 PM 57.9 °F - 48.0 °F 70% 30.10 in 10.0 mi ESE 15.0 mph 21.9 mph N/A   Overcast
11:53 PM 57.0 °F - 51.1 °F 81% 30.07 in 8.0 mi ESE 9.2 mph - 0.00 in Rain Light Rain